GW3736 Weather Reports


time (UTC)temp
F
wind
direction
speed
knots
gust
knots
rain 1hr
in
rain 24hr
in
rain mn
in
humidity
%
barometer
mb
20260906072528 64 191 0.9 3.5 0.00 0.00 0.00 84 1013.3
20260906071525 63 200 0.9 3.5 0.00 0.00 0.00 84 1013.2
20260906070522 63 190 0.9 3.5 0.00 0.00 0.00 84 1013.3
20260906065519 63 196 0.0 1.7 0.00 0.00 0.00 83 1013.3
20260906064536 63 202 0.9 3.5 0.00 0.00 0.00 83 1013.3
20260906063533 62 201 0.0 2.6 0.00 0.00 0.00 82 1013.3
20260906062530 62 197 0.9 2.6 0.00 0.00 0.00 82 1013.3
20260906061548 62 193 0.9 2.6 0.00 0.00 0.00 82 1013.4
20260906060523 62 195 0.9 1.7 0.00 0.00 0.00 81 1013.3
20260906055520 62 200 0.9 2.6 0.00 0.00 0.00 80 1013.3
20260906054517 62 194 0.9 2.6 0.00 0.00 0.00 80 1013.3
20260906053534 62 196 0.9 2.6 0.00 0.00 0.00 79 1013.4
20260906052531 62 198 1.7 3.5 0.00 0.00 0.00 79 1013.5
20260906051528 62 199 1.7 3.5 0.00 0.00 0.00 79 1013.5
20260906050545 62 196 0.9 3.5 0.00 0.00 0.00 78 1013.2
20260906045541 62 194 0.9 1.7 0.00 0.00 0.00 78 1013.1
20260906044518 63 197 1.7 5.2 0.00 0.00 0.00 77 1013.0
20260906043515 63 191 0.9 2.6 0.00 0.00 0.00 77 1013.2
20260906042532 63 195 0.9 2.6 0.00 0.00 0.00 77 1013.1
20260906041529 63 190 0.9 1.7 0.00 0.00 0.00 76 1013.0
20260906040547 63 195 0.9 2.6 0.00 0.00 0.00 76 1013.1
20260906035523 63 198 0.9 2.6 0.00 0.00 0.00 76 1013.2
20260906034519 64 202 1.7 5.2 0.00 0.00 0.00 75 1013.2
20260906033537 64 207 1.7 2.6 0.00 0.00 0.00 75 1013.0
20260906032533 64 201 0.9 1.7 0.00 0.00 0.00 74 1012.8
20260906031531 64 216 0.9 1.7 0.00 0.00 0.00 74 1012.8
20260906030527 65 280 1.7 5.2 0.00 0.00 0.00 74 1013.0
20260906025524 65 320 1.7 3.5 0.00 0.00 0.00 74 1013.0
20260906024521 65 322 0.9 3.5 0.00 0.00 0.00 73 1013.0
20260906023538 66 324 1.7 5.2 0.00 0.00 0.00 73 1013.1
20260906022535 66 333 0.9 2.6 0.00 0.00 0.00 73 1013.0
20260906021530 66 330 1.7 6.1 0.00 0.00 0.00 72 1013.1
20260906020525 67 331 1.7 5.2 0.00 0.00 0.00 71 1013.0
20260906015520 67 353 0.9 3.5 0.00 0.00 0.00 71 1013.0
20260906014517 67 352 2.6 7.0 0.00 0.00 0.00 71 1013.1
20260906013534 67 328 1.7 5.2 0.00 0.00 0.00 71 1012.9
20260906012532 68 327 0.9 3.5 0.00 0.00 0.00 70 1012.8
20260906011526 68 3 0.9 2.6 0.00 0.00 0.00 70 1012.5
20260906010522 68 353 0.9 2.6 0.00 0.00 0.00 70 1012.5
20260906005538 69 358 1.7 5.2 0.00 0.00 0.00 69 1012.5
20260906004515 69 358 1.7 6.1 0.00 0.00 0.00 69 1012.5
20260906003532 69 358 1.7 5.2 0.00 0.00 0.00 68 1012.3
20260906002529 70 351 1.7 6.1 0.00 0.00 0.00 68 1012.0
20260906001525 70 357 1.7 7.0 0.00 0.00 0.00 67 1012.0
20260906000539 71 7 1.7 5.2 0.00 0.00 0.00 66 1011.8
20260905235533 71 349 1.7 7.0 0.00 0.00 0.00 64 1012.0
20260905234551 72 359 1.7 5.2 0.00 0.00 0.00 65 1011.9
20260905233527 72 1 1.7 5.2 0.00 0.00 0.00 64 1012.1
20260905232524 73 3 0.9 5.2 0.00 0.00 0.00 63 1012.0
20260905231520 73 355 1.7 5.2 0.00 0.00 0.00 62 1012.0
20260905230515 73 357 2.6 7.8 0.00 0.00 0.00 60 1011.8
20260905225531 74 12 2.6 8.7 0.00 0.00 0.00 60 1011.9
20260905224527 74 19 1.7 7.0 0.00 0.00 0.00 60 1011.6
20260905223525 75 19 2.6 8.7 0.00 0.00 0.00 59 1011.6
20260905222521 75 13 2.6 7.0 0.00 0.00 0.00 60 1011.5
20260905221518 75 17 1.7 7.8 0.00 0.00 0.00 60 1011.3
20260905220534 75 10 1.7 7.0 0.00 0.00 0.00 59 1011.4
20260905215531 76 9 2.6 5.2 0.00 0.00 0.00 58 1011.5
20260905214528 76 12 0.9 5.2 0.00 0.00 0.00 59 1011.4
20260905213527 76 16 1.7 5.2 0.00 0.00 0.00 59 1011.3
20260905212544 76 22 1.7 3.5 0.00 0.00 0.00 59 1011.3
20260905211521 76 26 1.7 6.1 0.00 0.00 0.00 57 1011.2
20260905210536 77 28 1.7 7.0 0.00 0.00 0.00 56 1011.4
20260905205533 77 14 2.6 7.0 0.00 0.00 0.00 55 1011.1
20260905204530 77 4 2.6 6.1 0.00 0.00 0.00 54 1011.1
20260905203527 78 19 1.7 7.0 0.00 0.00 0.00 55 1011.2
20260905202524 78 8 1.7 7.0 0.00 0.00 0.00 56 1011.4
20260905201521 78 19 1.7 5.2 0.00 0.00 0.00 56 1011.4
20260905200519 78 24 2.6 8.7 0.00 0.00 0.00 57 1011.3
20260905195534 78 21 1.7 8.7 0.00 0.00 0.00 59 1011.4
20260905194531 78 30 2.6 6.1 0.00 0.00 0.00 60 1011.3
20260905193528 78 23 1.7 5.2 0.00 0.00 0.00 62 1011.4
20260905192605 78 32 1.7 5.2 0.00 0.00 0.00 63 1011.4
20260905191522 78 40 2.6 5.2 0.00 0.00 0.00 62 1011.4
20260905190539 78 44 3.5 6.1 0.00 0.00 0.00 63 1011.5
20260905185517 77 38 1.7 5.2 0.00 0.00 0.00 63 1011.7
20260905184532 77 47 3.5 7.8 0.00 0.00 0.00 64 1011.7
20260905183529 77 43 1.7 6.1 0.00 0.00 0.00 64 1011.6
20260905182526 77 30 1.7 5.2 0.00 0.00 0.00 64 1011.7
20260905181523 77 26 2.6 6.1 0.00 0.00 0.00 64 1011.8
20260905180520 77 40 1.7 6.1 0.00 0.00 0.00 65 1011.8
20260905175516 77 34 1.7 7.8 0.00 0.00 0.00 66 1011.9
20260905174530 77 46 3.5 7.0 0.00 0.00 0.00 65 1011.8
20260905173525 76 37 1.7 3.5 0.00 0.00 0.00 64 1011.7
20260905172520 76 44 2.6 7.0 0.00 0.00 0.00 65 1011.9
20260905171515 77 40 2.6 7.8 0.00 0.00 0.00 64 1012.0
20260905170532 76 29 1.7 6.1 0.00 0.00 0.00 65 1012.0
20260905165529 76 44 2.6 5.2 0.00 0.00 0.00 67 1011.9
20260905164527 76 42 2.6 7.0 0.00 0.00 0.00 67 1011.9
20260905163523 76 31 1.7 7.0 0.00 0.00 0.00 68 1012.1
20260905162519 76 26 2.6 7.0 0.00 0.00 0.00 69 1012.0
20260905161516 75 40 1.7 6.1 0.00 0.00 0.00 70 1012.0
20260905160534 75 31 1.7 7.0 0.00 0.00 0.00 72 1012.0
20260905155530 74 35 0.9 3.5 0.00 0.00 0.00 74 1011.9
20260905154527 74 39 2.6 5.2 0.00 0.00 0.00 75 1011.8
20260905153604 73 45 1.7 6.1 0.00 0.00 0.00 75 1011.9
20260905152520 73 41 1.7 5.2 0.00 0.00 0.00 76 1011.7
20260905151517 72 28 1.7 6.1 0.00 0.01 0.00 77 1011.8
20260905150534 71 28 0.9 2.6 0.00 0.02 0.00 77 1011.7
20260905145531 71 27 0.9 3.5 0.00 0.04 0.00 78 1011.5
20260905144528 71 28 0.9 2.6 0.00 0.04 0.00 78 1011.5
20260905143525 70 37 0.9 5.2 0.00 0.04 0.00 78 1011.6
20260905142522 70 23 1.7 5.2 0.00 0.04 0.00 78 1011.6
20260905141519 70 33 0.9 6.1 0.00 0.05 0.00 78 1011.3
20260905140521 70 32 0.9 6.1 0.00 0.05 0.00 78 1011.7
20260905135533 69 35 0.9 5.2 0.00 0.08 0.00 79 1011.4
20260905134530 69 79 1.7 6.1 0.00 0.09 0.00 79 1011.3
20260905133547 69 88 1.7 7.0 0.00 0.10 0.00 79 1011.3
20260905132546 69 88 1.7 3.5 0.00 0.10 0.00 79 1011.5
20260905131521 69 89 1.7 3.5 0.00 0.10 0.00 79 1011.5
20260905130538 69 89 0.9 3.5 0.00 0.11 0.00 79 1011.6
20260905125534 69 93 0.9 5.2 0.00 0.11 0.00 79 1011.4
20260905124531 69 94 1.7 2.6 0.00 0.11 0.00 80 1011.3
20260905123528 69 97 0.0 1.7 0.00 0.11 0.00 80 1011.3
20260905122525 69 97 1.7 5.2 0.00 0.11 0.00 80 1011.3
20260905121522 68 97 0.9 3.5 0.00 0.11 0.00 81 1011.2
20260905120519 68 96 1.7 6.1 0.00 0.11 0.00 81 1011.3
20260905115516 68 97 1.7 5.2 0.00 0.11 0.00 82 1011.2
20260905114613 68 97 1.7 3.5 0.00 0.11 0.00 82 1011.1
20260905113532 68 98 0.9 5.2 0.00 0.11 0.00 82 1011.0
20260905112527 68 98 1.7 3.5 0.00 0.11 0.00 82 1011.0
20260905111524 68 135 1.7 5.2 0.00 0.11 0.00 83 1011.0
20260905110521 68 111 1.7 5.2 0.00 0.11 0.00 83 1010.9
20260905105518 69 113 2.6 7.8 0.00 0.11 0.00 83 1011.0
20260905104537 69 118 0.9 2.6 0.00 0.11 0.00 84 1011.1
20260905103532 69 115 2.6 6.1 0.00 0.11 0.00 84 1011.0
20260905102529 69 117 0.0 2.6 0.00 0.11 0.00 84 1010.9
20260905101526 69 123 1.7 5.2 0.00 0.11 0.00 84 1010.8
20260905100523 69 126 1.7 5.2 0.00 0.11 0.00 84 1010.8
20260905095520 69 240 0.9 3.5 0.00 0.11 0.00 84 1011.1
20260905094517 69 241 0.0 1.7 0.00 0.11 0.00 84 1011.1
20260905093534 69 240 0.0 0.9 0.00 0.11 0.00 84 1010.9
20260905092532 69 196 0.0 1.7 0.00 0.11 0.00 84 1010.8
20260905091527 69 172 0.0 1.7 0.00 0.11 0.00 84 1010.8
20260905090524 69 171 0.9 2.6 0.00 0.11 0.00 84 1010.5
20260905085521 69 38 0.0 0.9 0.00 0.11 0.00 84 1010.3
20260905084518 69 17 1.7 5.2 0.00 0.11 0.00 84 1010.0
20260905083515 69 44 1.7 7.0 0.00 0.11 0.00 85 1009.9
20260905082532 69 27 1.7 6.1 0.00 0.11 0.00 85 1010.3
20260905081529 69 71 0.9 6.1 0.00 0.11 0.00 85 1010.3
20260905080526 69 115 0.9 3.5 0.00 0.11 0.00 85 1010.3
20260905075522 69 121 0.0 1.7 0.00 0.11 0.00 85 1010.4
20260905074520 69 112 0.9 2.6 0.00 0.11 0.00 86 1010.4
20260905073516 69 117 0.9 2.6 0.00 0.11 0.00 86 1010.7